Overview Statistics Trail Chart Weather Telemetry Raw packets
 

This is the latest recevied weather packets stored in our database for station/object 4S6DRJ-13. If no packets are shown the sender has not sent any weather packets the latest 10 day(s).

<< 356 357 358 359 360 361 362 >>
Time Temp. Humidity Pressure Rain* Wind** Luminosity Snow
1787931367 28.33° C 85% 1010.3 hPa 0 mm 0.89 m/s, 234° 0 W/m² -
1787931306 28.33° C 85% 1010.6 hPa 0 mm 1.79 m/s, 232° 0 W/m² -
1787931245 28.33° C 85% 1010.5 hPa 0 mm 1.79 m/s, 195° 0 W/m² -
1787931184 28.33° C 85% 1010.6 hPa 0 mm 0.89 m/s, 198° 0 W/m² -
1787931122 28.33° C 85% 1010.6 hPa 0 mm 0.45 m/s, 225° 0 W/m² -
1787931061 28.33° C 85% 1010.4 hPa 0 mm 0.89 m/s, 236° 0 W/m² -
1787931000 28.33° C 85% 1010.5 hPa 0 mm 0.89 m/s, 248° 0 W/m² -
1787930940 28.33° C 85% 1010.4 hPa 0 mm 0.89 m/s, 221° 0 W/m² -
1787930878 28.33° C 85% 1010.6 hPa 0 mm 0.89 m/s, 196° 0 W/m² -
1787930817 28.33° C 85% 1010.6 hPa 0 mm 1.34 m/s, 271° 0 W/m² -
1787930756 28.33° C 85% 1010.6 hPa 0 mm 1.34 m/s, 231° 0 W/m² -
1787930696 28.33° C 85% 1010.4 hPa 0 mm 0.89 m/s, 226° 0 W/m² -
1787930634 28.33° C 85% 1010.5 hPa 0 mm 0.45 m/s, 263° 0 W/m² -
1787930573 28.33° C 85% 1010.4 hPa 0 mm 0.45 m/s, 162° 0 W/m² -
1787930512 28.33° C 85% 1010.5 hPa 0 mm 1.34 m/s, 236° 0 W/m² -
1787930452 28.33° C 85% 1010.4 hPa 0 mm 0.45 m/s, 296° 0 W/m² -
1787930391 28.33° C 85% 1010.3 hPa 0 mm 0.89 m/s, 209° 0 W/m² -
1787930330 28.33° C 85% 1010.3 hPa 0 mm 1.79 m/s, 134° 0 W/m² -
1787930269 28.33° C 85% 1010.3 hPa 0 mm 0.45 m/s, 228° 0 W/m² -
1787930208 28.33° C 85% 1010.4 hPa 0 mm 0.89 m/s, 235° 0 W/m² -
1787930147 28.33° C 85% 1010.2 hPa 0 mm 1.34 m/s, 231° 0 W/m² -
1787930086 28.33° C 85% 1010.3 hPa 0 mm 0.45 m/s, 216° 0 W/m² -
1787930025 28.33° C 84% 1010.3 hPa 0 mm 1.34 m/s, 211° 0 W/m² -
1787929964 28.33° C 84% 1010.4 hPa 0 mm 0.45 m/s, 234° 0 W/m² -
1787929904 28.33° C 84% 1010.4 hPa 0 mm 1.34 m/s, 250° 0 W/m² -

* Rain latest hour (hover to see other rain measurements)
** Current wind speed in m/s (hover to see current wind gust speed)